Regional Weather Roundup
Issued by NWS Sioux Falls, SD

Home | Current Version | Previous Version | Text Only | Print | Product List | Glossary On
Versions: 1 2 3 4 5 6 7 8 9 10 11 12 13 14 15 16 17 18 19 20 21 22 23 24 25 26 27 28 29 30 31 32 33 34 35 36 37 38 39 40 41 42 43 44 45 46 47 48 49 50
000
ASUS43 KFSD 301302
RWRFSD

WEATHER ROUNDUP FOR SE SOUTH DAKOTA/SW MINNESOTA/NW IOWA
NATIONAL WEATHER SERVICE SIOUX FALLS SD
800 AM CDT THU JUL 30 2015

NOTE: "FAIR" INDICATES FEW OR NO CLOUDS BELOW 12,000 FEET WITH NO
SIGNIFICANT WEATHER AND OR OBSTRUCTIONS TO VISIBILITY.


SDZ038>040-050-052>070-301400-
SOUTHEAST SOUTH DAKOTA

CITY           SKY/WX    TMP DP  RH WIND       PRES   REMARKS
BROOKINGS      SUNNY     64  55  72 CALM      30.16R
CHAMBERLAIN    SUNNY     63  59  87 CALM      30.15S
HURON          SUNNY     63  56  78 NE5       30.13R
MADISON        FAIR      63  61  94 W5        30.14S
MITCHELL       SUNNY     65  60  84 CALM      30.13S
SIOUX FALLS    SUNNY     66  57  72 SW3       30.13S
WINNER         FAIR      67  53  61 W5        30.19R
YANKTON        SUNNY     70  57  64 SW8       30.14R
$$

MNZ071-072-080-081-089-090-097-098-301400-
SOUTHWEST MINNESOTA

CITY           SKY/WX    TMP DP  RH WIND       PRES   REMARKS
FAIRMONT       SUNNY     66  54  63 W7        30.10S
JACKSON        SUNNY     68  57  68 SW5       30.12S
LUVERNE        SUNNY     61  57  88 CALM      30.14S
MARSHALL       SUNNY     68  54  60 W8        30.11S
MONTEVIDEO     SUNNY     68  59  73 NW5       30.11S
PIPESTONE      SUNNY     66  57  72 CALM      30.14R
REDWOOD FALLS  SUNNY     70  54  56 W10       30.08S
WINDOM         SUNNY     64  57  77 CALM      30.12S
WORTHINGTON    SUNNY     66  55  68 W7        30.13S
$$

IAZ001>003-012>014-020>022-031-032-NEZ013-014-SDZ071-301400-
NORTHWEST IOWA

CITY           SKY/WX    TMP DP  RH WIND       PRES   REMARKS
DENISON        SUNNY     64  61  88 W3        30.16R FOG
ESTHERVILLE    SUNNY     66  61  84 CALM      30.11F
SIOUX CITY     SUNNY     70  58  65 NW3       30.15S
SPENCER        SUNNY     63  58  83 W6        30.14R
$$

ABBREVIATIONS USED IN REMARKS
   TC - TEMPERATURE IN CELSIUS
  WCI - WIND CHILL INDEX
   HX - HEAT INDEX
  VSB - VISIBILITY




USA.gov is the U.S. government's official web portal to all federal, state and local government web resources and services.